Dewpoint
61 56 52 52 53 54 55 58 60 59 61 63 64 63 62 60 63 66 65 68 70 71 71 72 72 71 71 71 71 71 70 71 71 70 70 71 70 71 71 70 70 71 69 68 70 70 71 71 72 72 74 75 76 76 75 76 75 71 74 78 76 74 74
58 55 52 51 53 54 56 58 59 59 60 63 64 66 64 62 64 65 67 69 70 71 71 71 72 72 71 71 71 72 72 71 72 72 71 71 72 73 72 72 71 72 72 72 71 72 73 70 71 73 74 75 74 76 75 75 75 74 74 77 75 76 76
63 60 54 53 54 55 56 58 59 60 61 61 63 63 64 66 66 67 69 68 70 71 71 70 72 71 72 72 72 72 71 70 70 70 70 68 71 69 70 72 72 70 70 70 72 70 71 73 72 74 74 73 71 74 75 75 76 74 75 76 74 72 75
65 65 57 55 56 56 56 58 60 60 60 62 62 62 64 67 67 67 68 69 69 70 70 68 69 68 70 72 72 73 71 71 70 68 68 69 69 69 70 70 71 71 70 70 69 69 68 71 73 73 74 74 73 74 74 74 73 74 74 77 74 73 75
65 66 58 56 55 56 56 58 59 61 61 62 63 64 63 65 66 67 67 67 68 68 68 66 66 67 68 69 69 69 71 70 71 70 69 68 69 70 69 68 69 68 69 69 71 71 73 73 72 74 74 74 73 73 73 74 73 74 75 77 75 73 73
64 64 62 57 55 56 56 56 58 60 61 62 63 62 63 65 63 64 66 66 67 67 68 67 65 66 67 67 68 67 69 71 72 71 70 70 70 68 69 69 68 68 66 69 69 71 71 72 71 71 72 71 69 70 71 72 71 72 73 74 74 73 70
63 65 64 60 59 57 57 57 57 60 62 61 61 61 61 63 63 63 64 65 67 67 65 64 64 65 67 67 68 69 68 67 69 68 68 68 69 69 70 69 70 68 68 70 69 70 71 71 71 72 71 70 72 69 70 72 72 71 73 74 76 74 73
63 63 63 60 56 57 57 59 59 61 61 60 61 62 63 62 63 64 64 63 64 63 65 64 66 69 69 68 68 68 67 68 67 68 68 67 68 69 69 69 69 69 69 68 70 70 70 71 70 71 71 70 70 71 70 73 75 72 72 72 73 74 71
64 63 65 62 57 59 60 60 61 62 61 61 62 63 62 63 64 65 68 68 66 66 67 66 67 69 70 70 70 69 68 68 68 67 66 65 66 66 66 67 68 69 69 67 68 70 70 70 69 70 71 71 71 72 72 74 73 73 72 72 73 74 71
65 67 64 65 64 61 63 63 62 64 63 64 65 65 64 65 67 68 68 70 70 68 69 68 70 69 70 70 69 69 69 69 69 67 66 64 64 65 66 65 66 68 68 67 66 67 69 70 70 70 74 72 73 75 74 73 73 72 72 72 72 73 73
64 67 67 65 64 62 63 64 65 67 67 68 66 63 65 65 66 67 68 68 68 70 71 69 70 70 70 71 71 70 70 69 68 67 68 68 65 65 65 65 65 67 67 67 66 66 67 69 70 71 73 71 72 73 73 72 72 73 71 71 71 72 71
64 65 68 68 66 63 64 64 65 65 66 67 68 66 68 70 67 68 70 69 70 70 71 71 70 71 72 71 71 71 70 68 68 67 67 68 68 67 65 65 65 65 66 67 67 67 65 67 68 69 72 73 72 72 73 73 73 73 73 72 71 70 70
66 67 68 69 69 66 64 65 63 65 66 67 68 69 70 70 71 72 72 71 71 71 72 72 72 72 73 74 72 71 69 68 67 68 67 70 71 70 69 66 65 64 64 66 67 67 66 65 68 69 69 71 71 70 72 72 71 74 75 72 70 73 72
66 67 67 68 69 68 67 64 66 68 69 69 70 70 69 71 70 72 73 72 72 72 72 71 71 73 73 74 73 72 70 70 69 71 72 71 72 72 70 68 67 66 66 66 67 66 67 66 65 67 68 69 69 70 72 72 71 75 74 75 74 72 72
64 65 68 67 68 68 67 68 68 68 69 69 70 71 70 70 71 72 73 74 74 73 74 74 74 73 73 75 74 73 73 73 72 72 73 73 74 74 74 71 68 68 68 68 67 65 67 66 65 65 66 67 71 72 70 68 71 72 71 74 74 74 72
65 67 66 66 67 67 68 66 68 69 69 70 70 71 71 71 72 72 73 74 74 74 74 74 74 74 74 75 75 76 75 75 74 74 75 76 74 74 76 74 71 68 70 69 69 70 70 69 68 66 65 67 70 69 68 69 71 75 73 75 74 73 71
65 67 66 66 66 67 67 67 68 67 68 70 70 71 72 72 72 73 73 74 75 74 75 74 75 75 75 75 76 76 76 76 76 76 77 74 73 73 74 75 75 73 71 70 71 71 73 70 69 67 66 65 66 66 67 68 67 68 66 68 71 72 70
65 66 66 67 66 66 68 67 68 68 68 69 70 71 72 72 72 73 73 74 74 74 74 74 74 74 75 75 76 75 78 78 79 79 77 76 75 74 74 75 75 76 76 74 72 73 72 70 70 71 69 69 69 71 69 67 64 63 65 66 66 69 72
64 66 66 65 67 66 67 68 67 70 70 71 70 70 71 72 72 73 74 73 74 74 75 74 74 74 75 76 76 78 78 78 78 78 78 77 77 76 76 75 75 75 76 74 73 71 72 73 72 71 71 71 72 72 69 66 63 62 63 64 64 65 70
66 66 65 65 66 66 66 67 67 69 69 71 72 72 72 72 73 73 74 74 75 75 74 73 73 74 73 75 75 76 76 77 78 77 76 77 76 76 76 76 76 76 75 73 74 73 74 74 72 74 74 73 73 72 68 65 61 60 61 61 62 64 68
65 64 64 64 65 65 65 66 68 68 70 70 71 70 71 71 71 72 72 72 72 72 73 73 73 73 73 74 75 73 75 77 76 76 76 76 75 75 76 76 76 75 75 74 75 75 75 75 74 74 74 74 72 70 64 59 57 59 59 58 59 61 68
64 64 64 64 64 65 66 66 67 67 68 70 70 70 71 71 72 71 72 72 71 72 72 72 72 72 72 72 73 74 75 77 76 74 74 74 74 74 74 75 75 75 74 74 76 75 76 74 75 75 74 74 71 68 63 56 55 56 56 56 57 60 68
63 63 64 64 66 66 66 67 67 67 69 69 70 70 70 71 71 71 71 71 72 72 73 73 74 73 73 74 75 75 75 75 74 73 73 74 72 74 74 75 74 73 72 75 75 75 74 75 74 72 71 71 70 68 62 57 55 53 52 53 54 62 69
63 64 64 64 64 66 66 67 67 68 68 68 68 68 69 69 69 69 69 69 69 70 70 70 70 71 72 73 74 74 73 73 72 72 72 72 72 72 73 73 73 74 74 74 73 74 74 74 72 71 71 70 68 65 59 52 53 51 51 50 51 58 69
63 64 64 64 64 64 65 66 67 67 67 67 67 67 67 67 67 67 67 67 67 67 67 67 68 69 70 71 72 72 71 71 71 71 71 71 72 72 73 72 72 73 74 73 71 72 73 71 69 69 70 70 68 65 61 56 55 52 50 49 49 59 65
63 63 64 64 64 64 65 66 65 65 65 65 65 66 66 66 65 64 64 65 65 65 65 65 66 67 68 70 71 71 71 71 71 71 71 71 71 72 72 73 74 72 71 71 71 71 71 70 70 69 69 68 66 64 60 56 54 55 51 49 49 50 63
63 63 63 63 62 63 64 65 65 64 65 65 65 65 65 65 64 63 63 64 63 64 65 66 66 66 67 69 70 69 69 70 69 68 68 69 69 70 69 70 70 70 70 70 70 69 68 68 68 68 68 67 65 65 65 62 58 58 51 50 49 50 54
62 63 64 63 63 62 63 64 64 65 65 66 64 65 65 64 63 63 63 64 63 64 65 65 65 66 66 67 67 68 68 68 68 68 68 68 68 67 67 67 67 68 68 67 67 66 66 67 68 67 67 66 64 62 58 58 60 61 55 51 50 50 52
61 61 63 62 61 61 61 62 62 62 62 64 65 64 64 64 63 62 62 62 62 63 62 63 65 65 66 66 67 67 67 68 68 68 67 68 68 67 66 66 67 67 67 65 64 65 65 65 65 65 66 66 65 64 63 63 61 58 61 53 50 49 51
61 60 60 60 60 60 60 60 61 61 62 62 62 63 62 60 59 59 58 59 60 60 61 61 62 63 63 64 65 66 67 67 68 67 67 67 67 68 67 67 67 67 67 66 66 65 65 66 66 66 65 65 67 65 67 68 67 59 58 59 52 50 49
58 58 60 60 58 59 58 58 58 58 58 58 58 58 58 57 57 57 57 58 59 59 58 57 57 58 58 59 61 62 63 65 67 68 67 67 67 67 67 66 67 67 68 67 67 67 66 66 68 67 67 68 64 65 67 68 70 67 62 62 61 53 50
56 56 56 56 56 56 56 56 55 55 55 55 55 56 58 57 57 57 58 58 60 59 59 59 58 58 57 56 56 55 55 57 58 60 60 61 63 65 67 67 67 67 68 68 68 67 67 67 66 66 65 65 65 66 66 67 66 66 61 59 51 56 54
54 53 53 52 53 55 53 52 52 53 53 51 52 53 54 56 56 57 58 58 58 59 60 59 59 59 59 58 57 57 56 53 50 50 54 57 57 59 61 63 64 64 66 66 65 64 65 64 64 63 60 61 61 62 64 63 63 54 53 53 53 54 56
56 56 55 55 54 54 53 51 51 52 53 54 55 55 54 55 55 55 56 55 54 54 56 56 54 52 52 50 50 50 50 50 53 51 49 50 49 47 47 49 51 52 55 56 56 57 59 59 59 59 59 59 59 59 56 51 54 54 54 54 55 55 56
57 58 55 54 55 56 56 56 55 56 55 56 56 56 56 56 57 58 59 58 56 56 54 52 53 51 47 47 46 47 50 46 47 47 48 49 52 51 54 55 53 48 50 53 53 51 50 56 55 54 52 49 50 54 54 55 54 54 47 54 45 51 55
55 54 54 53 54 55 57 58 58 57 56 56 57 56 56 55 55 55 54 55 55 55 55 55 52 50 47 46 46 48 50 50 47 48 47 46 48 50 51 52 47 50 55 49 54 47 44 48 50 49 51 52 49 54 53 53 55 44 41 40 40 41 42
58 55 53 54 55 57 57 58 58 58 57 57 57 56 56 56 55 57 56 57 55 53 56 56 55 53 51 53 51 50 51 53 55 58 57 54 52 52 52 50 54 43 43 49 50 45 40 40 40 43 46 56 55 55 50 48 43 40 40 40 40 40 40
56 56 55 53 55 56 55 55 55 55 54 54 54 53 54 53 55 58 56 58 57 57 58 57 55 54 52 53 55 56 55 51 54 56 58 60 60 59 57 55 55 56 48 41 45 45 42 40 40 39 41 43 47 57 59 50 43 40 40 40 40 40 40